Indianapolis, IN

5:37 AM EST on November 15, 2019 (GMT -0500)
Indianapolis International

Weather History for KIND - September, 2019

Change the Weather History Date:

Sunday, September 15, 2019

  Actual Average Record
Temperature  
Mean Temperature 72 °F 67 °F  
Max Temperature 82 °F 78 °F 100 °F (1939)
Min Temperature 61 °F 57 °F 42 °F (1974)
Degree Days  
Heating Degree Days 0 2  
Month to date heating degree days 0 13  
Since 1 July heating degree days 0 17  
Cooling Degree Days 7 4  
Month to date cooling degree days 126 88  
Year to date cooling degree days 1165 1009  
Growing Degree Days 22 (Base 50)    
Moisture  
Dew Point 58 °F    
Average Humidity 0    
Maximum Humidity 0    
Minimum Humidity 0    
Precipitation  
Precipitation 0.00 in 0.11 in 2.21 in (1881)
Month to date precipitation 0.01 1.56  
Year to date precipitation 36.56 30.89  
Snow  
Snow 0.00 in 0.00 in 0.00 in ()
Month to date snowfall 0.0 0.0  
Since 1 July snowfall 0.0 0.0  
Since 1 September snowfall 0.0 0.0  
Snow Depth 0.00 in    
Sea Level Pressure  
Sea Level Pressure 30.12 in    
Wind  
Wind Speed 6 mph (South)    
Max Wind Speed 9 mph    
Max Gust Speed -    
Visibility 10 miles    
Events      
T = Trace of Precipitation, MM = Missing Value Source: NWS Daily Summary

Daily Weather History Graph

Daily Weather History Graph

Search for Another Location

Airport or City:

Astronomy

Sep. 15, 2019 Rise Set
Actual Time 7:26 AM EDT 7:54 PM EDT
Civil Twilight 6:58 AM EDT 8:21 PM EDT
Nautical Twilight 6:27 AM EDT 8:52 PM EDT
Astronomical Twilight 5:54 AM EDT 9:25 PM EDT
Moon 9:01 PM EDT 8:35 AM EDT
Length of Visible Light 13h 22m
Length of Day
12h 28m
Full, 98% of the Moon is Illuminated
Sep 15
Full
Sep 21
Last Quarter
Sep 28
New
Oct 5
First Quarter
Oct 13
Full

Hourly Weather History & Observations

Time (EDT) Temp. Heat Index Dew Point Humidity Pressure Visibility Wind Dir Wind Speed Gust Speed Precip Events Conditions
12:54 AM 68.0 °F - 57.9 °F 70% 30.20 in 10.0 mi SSW 4.6 mph - N/A   Partly Cloudy
1:54 AM 66.0 °F - 59.0 °F 78% 30.20 in 10.0 mi WSW 3.5 mph - N/A   Partly Cloudy
2:54 AM 64.9 °F - 57.0 °F 75% 30.17 in 10.0 mi South 4.6 mph - N/A   Partly Cloudy
3:54 AM 64.9 °F - 57.9 °F 78% 30.16 in 10.0 mi SSE 3.5 mph - N/A   Partly Cloudy
4:54 AM 62.1 °F - 57.0 °F 84% 30.15 in 10.0 mi SSE 5.8 mph - N/A   Partly Cloudy
5:54 AM 63.0 °F - 57.0 °F 81% 30.14 in 10.0 mi SE 4.6 mph - N/A   Partly Cloudy
6:54 AM 61.0 °F - 55.9 °F 83% 30.16 in 10.0 mi SSE 6.9 mph - N/A   Partly Cloudy
7:54 AM 63.0 °F - 55.9 °F 78% 30.16 in 10.0 mi SSE 3.5 mph - N/A   Mostly Cloudy
8:54 AM 64.9 °F - 57.0 °F 75% 30.17 in 10.0 mi SSE 3.5 mph - N/A   Mostly Cloudy
9:54 AM 66.9 °F - 57.0 °F 70% 30.18 in 10.0 mi SSW 8.1 mph - N/A   Mostly Cloudy
10:54 AM 72.0 °F - 54.0 °F 53% 30.19 in 10.0 mi West 5.8 mph - N/A   Overcast
11:54 AM 72.0 °F - 54.0 °F 53% 30.20 in 10.0 mi SSW 5.8 mph - N/A   Overcast
12:54 PM 73.0 °F - 54.0 °F 51% 30.19 in 10.0 mi NE 3.5 mph - N/A   Overcast
1:54 PM 73.9 °F - 54.0 °F 50% 30.14 in 10.0 mi South 4.6 mph - N/A   Overcast
2:54 PM 75.9 °F - 55.9 °F 50% 30.09 in 10.0 mi SSE 8.1 mph - N/A   Overcast
3:54 PM 80.1 °F 80.7 °F 59.0 °F 48% 30.06 in 10.0 mi SSE 9.2 mph - N/A   Mostly Cloudy
4:54 PM 82.0 °F 82.1 °F 59.0 °F 45% 30.07 in 10.0 mi WSW 8.1 mph - N/A   Mostly Cloudy
5:54 PM 80.1 °F 80.9 °F 60.1 °F 50% 30.05 in 10.0 mi SSW 5.8 mph - N/A   Mostly Cloudy
6:54 PM 79.0 °F - 62.1 °F 56% 30.04 in 10.0 mi SSE 6.9 mph - N/A   Mostly Cloudy
7:54 PM 78.1 °F - 63.0 °F 60% 30.03 in 10.0 mi SSE 6.9 mph - N/A   Mostly Cloudy
8:54 PM 75.9 °F - 63.0 °F 64% 30.04 in 10.0 mi SSE 6.9 mph - N/A   Mostly Cloudy
9:54 PM 73.9 °F - 63.0 °F 68% 30.04 in 10.0 mi SE 8.1 mph - N/A   Scattered Clouds
10:54 PM 75.0 °F - 64.0 °F 69% 30.04 in 10.0 mi South 5.8 mph - N/A   Mostly Cloudy
11:54 PM 72.0 °F - 64.0 °F 76% 30.05 in 10.0 mi SSW 5.8 mph - N/A   Scattered Clouds